Theta_e
344 346 347 350 349 347 346 347 347 349 349 349 349 349 350 350 349 349 348 349 350 350 349 349 350 349 349 348 347 346 345 344 344 344 344 343 342 343 343 344 343 342 342 342 346 348 348 348 348 347 347 346 346 346 346 345 343 343 343 341 342 342 342 341 340 338 338 338 339 340 342 342 342 342 342 343 343 343 343 343 343 341 341 344 348
344 346 348 348 350 349 347 347 348 349 348 349 350 350 350 350 349 348 348 349 349 349 348 349 349 349 349 348 347 346 345 344 344 344 344 342 342 343 342 342 342 341 341 342 348 347 348 348 348 347 347 346 345 344 343 343 341 341 341 341 342 341 342 342 341 340 337 337 338 338 339 340 340 340 340 341 341 342 341 342 342 339 340 345 346
344 346 348 348 350 349 348 348 347 348 348 349 349 350 349 349 349 348 347 347 348 347 346 347 348 349 348 348 347 346 345 344 344 344 344 343 342 342 342 341 341 341 341 346 347 347 347 347 347 348 347 345 343 343 341 342 341 340 341 341 341 341 342 343 343 341 340 336 336 337 338 339 338 338 339 340 341 341 339 340 341 340 339 344 344
343 346 346 347 348 350 349 349 349 348 348 348 348 349 349 349 348 348 347 347 348 348 347 346 347 349 349 347 347 346 345 345 344 344 343 342 342 341 341 341 341 341 341 345 348 347 347 348 347 344 342 342 342 341 340 341 341 340 340 341 341 341 342 341 342 339 338 337 336 334 332 330 334 338 339 339 339 339 338 339 340 340 342 343 344
343 345 346 346 347 348 350 350 350 350 349 347 349 348 349 349 349 348 348 349 348 347 348 346 347 347 347 347 347 346 345 344 344 343 343 342 341 341 340 340 341 340 341 348 347 347 347 347 345 343 341 340 341 340 339 340 341 340 340 341 341 341 343 342 340 340 338 337 335 333 329 329 330 336 338 339 338 338 337 337 337 339 339 340 341
343 344 346 347 347 347 349 350 350 350 350 349 348 349 349 348 348 347 348 349 348 347 347 346 347 346 345 346 346 346 345 344 343 343 342 342 341 340 340 340 340 341 346 347 346 347 346 345 344 342 341 339 339 339 338 340 340 340 340 341 342 342 342 341 340 339 337 335 333 329 329 330 331 332 338 338 338 336 336 337 337 338 338 339 339
343 343 344 346 347 346 346 350 350 349 349 349 349 348 349 348 349 349 348 348 348 347 347 347 346 345 345 344 345 345 344 344 343 343 342 342 340 340 340 340 341 341 342 346 346 346 346 346 344 342 341 340 339 339 338 339 339 340 340 340 341 341 343 338 337 337 335 331 327 327 328 329 330 331 337 337 337 336 335 337 337 337 337 337 337
344 344 344 346 346 343 346 349 350 349 349 349 349 348 348 348 348 347 347 347 347 348 347 347 345 344 344 344 345 345 344 343 343 342 342 341 340 340 340 342 346 346 346 346 346 346 346 345 343 341 340 340 340 339 338 339 339 339 339 339 340 340 343 338 337 336 335 327 327 328 328 329 329 330 337 337 337 336 336 336 337 337 336 336 335
343 343 344 346 345 344 348 349 350 349 349 348 348 348 348 348 347 347 347 347 347 347 347 347 345 345 344 343 343 344 344 343 342 341 341 341 339 339 340 341 344 345 345 345 345 345 345 344 343 341 341 339 339 338 338 338 338 338 339 340 341 342 341 339 337 334 331 330 330 329 329 329 329 329 335 337 337 337 336 334 334 336 336 336 335
342 343 347 346 345 343 346 349 349 349 349 348 348 348 347 348 348 348 347 347 347 347 346 346 345 344 343 342 343 343 343 342 342 341 340 340 339 339 338 340 341 342 343 343 344 343 344 343 342 341 340 339 338 337 337 337 337 337 338 339 342 343 341 339 337 335 332 331 332 333 334 335 330 330 334 336 338 338 338 335 335 334 334 335 334
342 344 347 346 345 343 349 349 349 349 349 348 348 347 347 347 347 347 347 346 347 347 346 345 344 343 342 342 342 343 342 342 341 340 340 339 339 338 338 338 339 340 340 342 342 342 342 341 341 339 339 338 337 337 337 336 337 337 337 337 339 341 339 338 335 333 333 333 333 333 335 338 331 332 338 338 338 338 337 336 336 335 334 335 335
342 345 346 345 345 343 348 349 349 349 349 348 348 347 347 346 347 346 346 347 347 346 346 345 345 343 342 342 342 342 342 341 340 339 339 339 338 337 337 339 339 339 339 339 339 340 339 339 338 337 336 335 336 336 336 336 336 336 336 336 338 339 337 335 333 332 332 332 332 332 332 332 333 335 338 339 339 339 337 337 337 338 337 336 336
343 345 345 345 344 340 346 348 348 348 348 348 348 347 347 346 346 346 346 346 346 346 345 344 344 342 341 341 341 341 341 340 340 339 339 338 338 337 337 337 335 335 335 336 336 336 337 337 336 336 335 336 336 335 335 335 335 335 335 335 336 338 335 334 331 331 331 331 331 331 331 331 333 338 338 339 338 339 339 338 337 337 338 338 338
344 344 345 345 343 344 341 345 347 348 348 348 347 347 346 346 346 346 345 346 346 345 345 344 344 342 341 340 341 342 341 340 340 339 339 338 338 338 338 337 336 335 334 333 333 334 335 334 334 335 334 335 335 334 334 334 333 334 334 335 335 333 330 329 330 329 330 330 331 331 330 331 331 339 338 337 339 337 338 338 338 338 337 337 337
343 344 345 344 342 341 340 340 343 345 347 348 348 347 346 346 347 347 345 345 344 344 344 343 342 341 340 340 340 341 340 340 339 338 338 338 337 337 337 336 335 334 333 333 332 331 332 333 333 333 334 334 334 333 333 333 333 333 334 334 334 330 328 325 325 325 327 328 329 330 331 332 336 337 338 338 338 337 336 337 336 335 335 336 336
345 344 344 343 343 340 340 339 337 340 342 345 345 346 347 347 347 346 345 344 344 344 343 343 342 340 339 339 339 338 338 338 338 338 337 337 337 336 336 335 335 334 333 332 332 331 332 333 333 333 333 333 332 332 332 332 332 332 331 333 329 328 326 324 323 323 324 325 326 328 328 331 335 335 338 336 338 336 336 334 336 337 336 335 334
344 344 344 344 343 342 341 341 336 333 336 338 340 343 345 346 346 346 346 345 344 344 343 343 342 341 339 338 337 336 336 336 337 337 336 336 335 335 335 335 334 332 331 331 331 332 332 332 332 332 332 331 331 331 330 330 330 330 331 330 328 327 324 323 323 323 324 325 326 326 327 328 332 335 336 337 337 335 334 337 336 335 335 335 333
343 343 343 344 343 342 342 341 337 340 339 335 334 338 342 344 345 344 344 344 344 342 343 342 342 340 338 336 335 335 334 334 334 335 335 335 335 334 333 333 332 331 330 330 330 332 332 331 330 330 330 329 329 329 329 328 328 329 331 328 326 325 322 321 321 322 323 325 325 326 326 331 332 333 336 336 334 335 334 336 334 333 333 333 332
341 341 342 343 343 343 342 342 341 342 341 340 340 337 336 339 341 341 341 342 342 341 340 340 337 336 335 332 331 329 328 329 330 331 332 332 332 330 331 330 330 329 329 329 330 330 330 329 329 328 328 327 327 327 326 326 326 327 329 325 323 322 321 321 320 321 322 323 324 324 325 332 333 334 335 335 335 335 334 333 333 332 331 331 331
339 339 338 339 342 341 341 342 342 342 342 341 341 340 333 334 338 339 339 339 337 338 337 335 331 329 328 326 324 324 324 323 323 324 327 329 328 327 329 330 329 328 327 328 328 329 328 327 326 326 325 324 323 323 323 324 325 325 325 324 321 319 320 320 320 320 321 322 323 325 329 330 330 333 332 333 333 333 334 332 332 331 332 331 330
339 336 337 335 337 341 340 339 341 342 341 341 341 341 336 332 333 331 332 333 334 334 332 327 324 322 323 322 323 324 324 323 322 321 320 322 321 324 328 329 328 326 326 325 326 326 326 325 324 323 322 321 319 319 319 322 323 324 324 321 319 319 319 319 318 318 318 320 322 326 330 330 329 331 331 332 333 333 332 331 331 331 332 331 331
333 333 336 336 335 337 340 340 340 340 340 341 341 341 337 337 339 337 336 332 329 326 329 330 328 326 323 326 327 325 325 323 322 323 322 322 321 321 323 325 325 324 324 324 324 323 322 322 321 320 320 320 318 311 312 315 318 319 318 317 317 317 317 317 316 315 316 319 324 328 331 331 330 332 332 332 331 331 331 331 331 331 331 330 330
329 331 332 335 334 335 338 340 339 340 340 340 341 340 339 340 340 339 337 332 331 333 335 331 330 327 327 329 328 329 326 324 323 323 321 319 320 320 322 323 323 322 322 321 321 320 319 318 318 317 317 316 309 308 308 309 309 312 312 312 314 315 315 314 313 313 314 317 323 328 330 330 330 332 332 332 332 331 331 330 330 330 329 328 329
327 329 330 334 334 333 335 338 339 339 340 340 340 340 341 339 339 339 338 337 336 338 337 335 331 328 329 329 330 331 326 321 321 321 321 319 318 317 318 318 319 319 318 318 320 319 319 317 316 315 311 309 307 306 306 306 306 308 308 309 311 313 313 312 311 311 311 314 318 327 329 329 330 331 333 332 332 330 331 330 329 329 328 327 326
328 328 328 332 334 335 336 335 337 339 339 339 339 339 339 339 339 339 338 338 338 338 337 337 333 329 332 334 334 327 323 321 320 320 320 319 316 315 314 313 312 311 313 310 311 314 313 310 307 306 304 304 304 304 304 304 305 305 306 307 308 310 311 310 310 309 309 311 314 324 327 328 330 332 333 332 331 329 330 330 329 328 327 326 324
328 327 328 329 332 335 336 336 337 337 337 338 338 338 339 339 338 339 338 337 337 336 336 336 335 332 335 335 332 327 323 321 320 321 321 319 316 314 313 312 311 311 312 311 313 311 308 306 304 303 302 302 303 303 304 304 303 303 304 305 305 306 308 309 308 308 308 309 311 318 325 327 328 330 330 331 330 329 328 328 328 327 326 326 323
325 325 327 329 331 334 335 336 336 336 336 338 338 337 337 338 337 338 337 336 336 335 334 334 335 336 335 334 333 328 324 322 322 322 320 319 317 316 313 313 312 311 313 313 310 307 304 303 302 302 302 301 302 302 304 304 303 302 302 303 303 304 305 307 307 306 305 306 308 315 320 325 327 328 328 328 329 328 328 328 327 325 325 326 325
324 325 326 326 327 330 333 333 335 335 335 337 336 336 337 337 338 336 337 334 335 335 334 334 334 335 334 333 331 329 325 323 323 322 320 319 318 317 315 314 314 314 313 310 306 304 303 302 302 301 300 300 301 301 302 302 301 301 301 300 301 301 303 304 305 305 305 304 305 311 316 321 323 324 325 325 327 327 328 327 325 323 322 321 322
325 325 325 325 327 328 330 333 333 334 335 336 334 333 334 336 337 337 337 333 336 335 334 334 333 334 334 333 333 329 327 326 325 322 320 318 318 317 316 315 314 311 308 306 304 302 303 302 300 299 298 298 299 299 299 298 297 298 298 298 298 298 299 301 303 304 304 303 303 306 312 316 320 320 322 323 324 324 325 325 326 325 324 321 319
325 325 325 324 326 327 327 328 330 332 334 334 332 331 332 332 334 337 338 334 336 336 334 334 333 333 334 333 332 331 328 327 326 322 320 318 317 317 316 315 313 310 307 304 304 302 301 300 299 299 298 298 298 298 297 296 296 296 296 295 296 296 296 297 299 301 302 302 302 303 307 311 317 318 319 320 321 323 323 323 324 323 323 321 319
324 324 325 324 324 326 327 328 330 328 330 332 332 331 332 333 333 334 337 336 337 336 335 334 333 333 333 333 333 331 330 328 327 323 321 319 318 317 316 315 312 310 307 304 303 301 301 300 299 298 298 298 297 297 296 295 294 294 294 294 294 294 294 294 295 296 298 299 300 301 302 306 311 316 316 317 318 320 319 321 321 321 321 320 319
324 324 324 325 324 325 326 328 329 329 329 329 329 330 330 333 333 334 333 331 335 335 334 334 332 332 333 333 333 332 330 330 328 325 321 319 318 317 316 313 311 309 306 304 302 301 301 300 300 299 298 297 296 296 296 294 293 293 293 293 293 293 293 293 293 293 294 295 296 297 298 300 304 309 313 314 316 316 317 318 318 318 319 318 318
323 325 325 325 324 325 325 326 328 327 327 327 327 328 328 332 334 334 333 332 331 332 333 334 335 334 333 334 332 332 331 331 329 325 320 319 317 316 314 311 309 307 306 304 302 301 299 299 299 299 298 297 296 295 296 293 292 292 292 292 292 292 292 292 292 292 292 292 293 293 294 295 296 301 306 310 312 313 314 314 314 314 315 315 316
322 322 325 325 325 325 325 326 326 325 325 325 326 325 325 326 332 333 332 331 331 332 332 333 334 334 333 333 332 331 330 331 329 324 320 318 316 315 312 310 308 306 304 302 300 299 298 298 297 297 298 295 294 294 293 291 291 291 291 291 291 291 291 291 290 290 291 291 291 291 291 290 291 293 296 304 308 310 311 312 312 312 312 312 312
320 322 324 324 324 323 324 325 323 323 323 324 323 323 323 324 326 331 331 329 329 330 330 332 334 333 333 332 332 329 330 330 328 322 319 317 316 313 311 309 307 304 303 301 299 299 298 297 297 295 295 294 294 293 292 291 291 290 290 291 290 291 290 290 290 290 290 290 290 290 290 289 288 289 291 292 299 303 305 307 310 310 310 311 311
321 322 323 323 322 321 321 320 319 320 320 320 320 321 321 322 324 325 328 327 327 328 327 327 330 333 333 333 332 330 330 329 325 322 319 318 316 312 310 308 306 304 303 301 299 298 298 297 296 296 294 293 293 291 291 291 291 290 290 289 289 290 289 289 290 290 290 290 290 290 290 290 289 288 290 289 292 296 300 302 305 307 308 309 310
320 320 321 321 320 318 318 318 317 317 318 319 319 318 319 320 322 325 327 325 324 326 327 324 325 327 331 331 332 330 331 329 325 323 320 318 315 312 310 307 305 303 302 300 299 299 298 298 296 296 294 293 292 291 290 290 290 290 290 289 289 290 289 289 289 290 291 289 288 289 290 290 291 293 289 288 289 292 297 297 299 301 304 305 307
320 319 319 320 319 317 317 317 316 317 317 317 317 317 318 319 321 321 322 323 320 322 324 324 323 324 325 327 330 330 328 328 326 323 320 318 315 312 309 307 305 303 301 300 298 298 299 298 296 296 294 293 291 290 290 290 291 290 289 289 289 289 289 289 290 291 289 289 289 289 289 289 289 289 290 289 289 289 289 294 295 296 297 301 305
319 318 318 317 317 315 315 314 315 316 315 316 315 316 317 317 319 320 320 320 320 316 319 322 322 322 321 323 326 326 326 327 325 322 320 317 315 312 309 306 305 302 301 300 299 298 297 297 295 294 294 292 291 291 291 291 290 290 289 289 289 289 289 290 290 289 288 289 290 291 290 289 289 289 289 289 288 288 288 287 286 286 289 296 300
317 317 316 316 316 314 314 313 314 315 314 315 315 313 315 314 314 313 315 316 318 315 317 319 320 320 321 321 323 325 325 326 325 323 320 317 314 311 308 306 304 303 301 299 298 297 296 295 294 293 292 292 292 291 291 289 289 288 288 288 288 289 289 289 289 289 289 288 288 288 288 288 288 288 288 289 288 288 287 287 287 285 286 290 295
315 315 315 315 315 314 313 312 314 314 314 313 312 312 311 310 310 312 313 314 315 315 315 316 317 318 318 319 321 322 323 324 323 321 318 314 313 310 308 306 305 303 301 300 299 298 297 295 294 293 291 290 290 290 289 288 287 286 286 286 287 289 290 289 288 288 288 287 287 287 287 287 287 287 287 288 287 287 286 286 285 285 284 284 286
313 314 314 314 314 314 313 313 313 314 313 313 312 311 311 312 312 311 310 312 310 312 311 311 313 315 316 317 317 319 320 320 319 319 317 315 312 309 307 306 305 304 302 300 298 297 296 295 294 293 292 291 290 290 289 288 286 283 283 284 285 286 288 287 288 288 288 288 288 288 288 288 287 287 287 287 287 286 286 286 285 285 284 284 284
312 312 313 313 312 313 313 313 313 313 312 312 312 311 311 312 313 310 314 307 309 311 311 309 308 312 313 315 315 316 318 318 318 316 316 314 312 310 308 307 306 304 301 299 297 296 295 295 294 292 290 290 290 291 289 288 285 285 285 283 281 282 287 285 286 286 287 287 287 287 287 287 287 287 287 286 286 286 286 285 285 284 284 284 283
310 310 310 311 312 311 312 312 312 312 312 310 310 312 312 313 314 312 310 306 302 303 305 305 305 306 308 311 313 314 315 316 316 315 314 313 312 311 309 307 306 304 301 298 296 295 295 294 294 293 292 289 289 289 290 291 288 286 282 285 282 282 279 281 282 285 286 286 287 287 287 287 287 287 286 286 286 285 285 285 284 284 284 283 283
309 309 309 310 311 310 311 311 311 311 311 310 311 312 308 306 305 305 304 303 303 302 303 303 304 305 304 305 308 311 312 313 314 314 313 313 312 310 309 307 305 303 301 298 296 296 295 295 294 293 292 290 289 289 290 294 290 290 288 285 283 284 282 282 282 282 284 284 285 286 287 286 286 286 285 285 285 285 285 284 284 284 283 283 283
308 309 309 310 310 310 311 311 310 309 309 310 311 310 307 305 305 306 305 305 303 302 303 303 302 303 303 303 302 307 310 311 311 311 311 311 310 309 308 306 304 302 301 299 297 296 295 295 295 294 293 292 291 289 289 293 294 294 293 292 290 286 283 282 282 278 283 285 284 285 285 286 286 286 286 285 284 285 286 285 284 284 283 282 282
308 309 309 309 309 309 309 310 309 308 309 309 310 307 309 308 307 308 308 308 307 305 306 306 303 304 304 302 301 302 307 309 310 310 309 309 309 308 307 305 304 303 300 299 297 296 296 295 296 295 294 294 293 290 290 291 292 292 294 292 291 292 285 283 281 280 278 282 283 283 284 286 285 285 285 285 285 285 285 285 283 282 282 282 281
307 308 308 309 309 309 309 309 308 307 308 309 309 307 309 309 308 308 308 308 308 305 305 304 304 303 303 301 300 300 302 306 307 308 309 308 308 307 306 305 303 302 300 299 298 298 297 297 296 295 295 295 293 291 290 291 291 290 290 290 289 287 287 288 285 281 280 278 279 283 284 284 284 284 285 284 284 283 283 282 282 281 281 282 281
308 308 308 308 308 308 308 308 307 307 307 307 307 307 308 309 308 309 308 308 309 306 305 303 302 301 301 299 299 299 300 301 303 304 307 308 306 307 306 304 303 302 300 300 300 298 297 296 295 295 295 295 294 293 291 291 290 289 289 289 289 288 288 287 286 286 280 279 279 279 280 283 283 283 284 283 283 283 282 282 283 282 283 282 281
307 308 308 308 308 308 308 308 306 307 307 307 305 306 308 308 308 308 308 308 309 306 304 303 301 300 299 298 298 298 299 299 300 301 303 305 306 306 305 304 303 302 300 301 300 298 298 297 296 296 296 295 294 294 292 290 291 290 290 288 288 286 284 284 286 284 283 282 280 279 280 280 279 280 282 282 282 282 282 282 282 281 281 280 280
307 308 307 307 307 307 307 307 307 307 306 305 304 305 308 308 308 308 309 309 309 305 303 301 299 299 299 296 297 297 297 299 299 300 301 302 304 305 305 304 303 301 300 301 300 299 299 298 297 296 296 295 294 294 294 292 292 290 289 288 288 288 285 283 283 283 280 280 279 279 279 279 279 279 280 282 282 282 282 282 281 280 280 280 279
Wind_Speed
7 9 6 8 12 12 9 8 7 7 9 12 12 12 13 13 13 12 12 13 14 14 15 15 16 17 18 18 18 18 17 16 17 17 17 16 15 15 14 14 13 13 14 15 17 16 17 18 20 20 21 21 20 21 21 21 22 21 20 19 18 17 17 18 21 22 22 23 25 25 24 23 23 23 23 23 22 22 20 22 18 13 11 18 24
10 8 7 7 11 14 12 8 8 8 9 9 10 12 12 13 12 12 12 13 13 14 14 15 16 16 16 17 17 17 17 17 17 17 17 16 16 15 15 15 14 13 15 16 18 17 17 18 21 21 21 20 20 20 20 20 21 18 17 16 16 15 14 12 12 16 20 20 21 22 23 26 25 24 23 23 23 23 20 22 21 12 11 23 22
10 9 7 8 9 12 13 13 11 9 8 9 7 11 12 12 12 12 12 12 12 13 14 14 15 16 16 16 16 17 16 17 16 16 16 16 16 15 16 15 14 14 14 17 17 18 18 20 21 22 20 19 20 20 19 19 18 17 17 16 15 14 13 12 11 12 16 18 17 18 17 20 25 24 23 24 23 23 21 22 22 19 15 25 22
10 9 7 8 9 11 12 13 13 13 11 8 8 9 11 11 12 12 12 12 14 14 12 13 15 15 16 16 16 16 16 16 16 16 16 16 16 15 14 15 14 14 15 16 18 18 19 21 22 21 20 20 19 19 20 19 18 16 16 15 15 14 13 12 11 20 18 16 15 13 10 9 14 24 25 25 25 25 21 22 23 25 25 24 25
9 9 8 7 7 8 11 12 12 11 12 12 11 10 11 12 12 12 11 13 13 12 10 12 15 14 15 16 16 16 16 16 15 15 16 16 16 15 14 14 14 14 16 18 19 20 20 21 22 20 19 19 19 19 19 18 16 15 15 15 14 13 11 10 7 14 18 18 16 12 10 9 9 21 23 25 25 22 22 24 24 25 24 25 23
7 8 8 8 7 7 10 12 11 11 11 12 12 12 11 13 13 11 11 12 13 12 11 13 14 14 15 16 16 16 16 15 15 15 15 15 15 15 14 14 15 15 18 17 18 19 19 21 20 20 19 19 19 19 19 17 15 15 15 15 15 15 14 16 15 13 15 16 15 9 9 10 10 11 23 24 24 22 23 24 24 24 24 25 25
7 6 7 9 7 7 10 12 12 12 11 11 11 11 11 11 12 12 12 13 14 12 12 14 14 14 15 15 16 16 16 16 15 15 15 15 15 14 13 14 15 14 14 17 18 18 20 19 20 19 19 19 19 18 18 15 14 15 15 15 14 13 11 17 15 14 14 10 7 8 8 10 9 8 23 22 23 24 25 25 25 23 25 25 25
4 5 7 7 8 7 11 12 12 12 12 11 11 11 11 11 10 11 11 13 13 13 14 15 15 14 15 15 16 16 16 15 15 15 15 14 14 13 13 16 18 18 18 18 18 20 19 21 20 19 19 18 18 18 15 14 14 15 14 13 13 11 8 15 15 16 13 8 7 8 8 9 9 8 21 24 25 25 23 25 23 25 25 25 18
5 4 7 8 7 10 10 10 12 12 12 11 11 11 11 10 10 11 11 12 12 13 14 14 14 14 15 15 16 16 15 15 15 15 14 14 13 13 15 15 17 17 18 18 17 19 20 20 20 19 18 18 18 16 15 15 15 15 16 16 14 12 11 14 16 14 10 9 9 8 9 8 7 8 19 23 24 24 23 19 21 25 26 21 21
6 5 8 7 7 9 9 10 12 12 12 11 11 11 11 10 10 10 10 12 13 13 14 14 14 14 15 15 15 15 15 15 15 15 14 14 14 14 15 15 15 17 17 17 18 18 19 20 20 19 18 18 17 15 15 15 15 15 16 17 16 15 20 17 16 12 9 9 10 9 9 9 6 8 18 22 23 24 21 19 15 15 17 23 25
5 8 7 8 8 10 9 10 9 10 12 11 10 11 11 11 11 11 11 11 13 14 14 14 14 15 15 15 15 14 14 15 15 14 14 14 14 14 14 15 14 15 16 17 17 18 19 19 19 19 18 17 16 15 14 14 15 16 17 16 16 16 19 17 14 9 10 12 11 10 11 12 7 9 19 21 23 23 20 20 19 20 23 24 24
6 9 8 7 9 10 9 10 10 11 10 11 11 11 10 10 10 10 11 11 13 13 14 14 15 15 14 14 14 14 14 15 15 14 14 14 14 14 15 15 15 15 16 16 17 18 18 18 18 18 18 17 15 14 14 15 15 16 17 16 15 11 18 18 11 10 11 12 12 11 10 10 9 14 21 21 22 23 23 22 23 24 24 25 25
7 9 8 8 7 8 9 10 9 9 10 11 11 11 10 10 10 10 10 11 12 14 14 14 14 14 14 14 14 14 14 14 15 14 14 14 14 15 15 15 15 15 15 15 16 16 17 18 18 17 17 16 15 15 15 15 17 17 16 15 12 9 14 14 10 11 11 10 9 9 8 7 10 21 22 22 22 23 22 23 25 25 25 25 26
9 8 7 7 6 8 10 9 9 9 10 11 11 10 9 10 10 10 10 11 12 13 14 14 14 14 14 14 14 15 14 14 15 14 14 14 15 15 15 16 16 16 16 15 15 15 16 17 16 17 16 16 16 15 15 16 16 14 14 14 12 10 13 11 9 8 10 11 9 9 7 8 10 22 24 22 24 23 23 25 26 26 26 27 27
10 8 7 7 7 6 10 8 8 8 8 9 9 8 10 10 9 9 10 10 10 13 13 14 14 14 14 14 14 14 15 15 15 14 15 15 15 15 15 15 16 16 15 15 15 15 15 16 16 16 16 16 16 16 15 15 15 15 16 15 13 15 14 9 8 7 8 9 9 9 7 9 19 23 24 24 24 25 23 25 27 26 26 27 28
9 9 7 8 7 6 6 7 9 8 8 8 8 8 9 9 9 10 10 10 12 13 13 14 14 13 14 14 14 14 15 15 15 15 14 15 15 15 15 16 16 16 16 15 15 15 15 16 16 16 16 16 16 16 15 15 15 15 14 13 14 15 14 9 8 9 8 8 8 7 8 10 22 22 23 24 23 24 23 24 25 26 28 28 27
8 9 7 8 8 6 6 5 6 10 8 8 7 8 9 10 10 9 8 10 11 13 12 13 14 13 14 14 14 13 14 14 15 15 14 14 15 15 15 16 16 15 15 16 16 16 16 16 16 16 16 16 16 16 15 15 15 14 12 12 15 14 14 12 9 8 8 8 7 7 8 8 19 23 25 25 26 25 24 26 28 27 27 27 28
4 6 7 7 9 7 7 6 6 6 5 6 6 7 9 11 10 9 8 8 9 11 12 12 13 12 12 12 12 12 12 14 14 14 14 13 14 14 15 15 15 15 16 16 16 16 16 17 17 17 17 17 17 16 16 15 15 14 11 13 15 15 14 12 8 8 9 9 8 6 7 16 23 23 25 25 24 26 26 27 26 26 26 26 28
3 4 4 5 5 5 8 7 5 5 5 5 4 4 8 10 10 10 10 8 9 11 11 12 13 12 12 13 13 13 13 13 13 13 13 12 12 12 13 14 15 15 16 16 16 16 17 17 17 17 17 17 17 16 16 15 14 13 13 19 19 17 15 10 8 9 8 8 7 7 7 17 22 23 24 24 25 26 25 25 26 25 25 26 26
4 4 3 1 4 5 5 7 6 6 5 5 5 5 6 10 10 10 11 10 10 11 12 12 13 13 13 14 14 12 11 10 12 10 11 11 11 10 13 14 15 15 15 16 16 16 17 17 17 18 18 18 17 16 16 16 15 14 14 17 15 14 10 8 10 8 6 6 6 7 13 16 19 22 22 22 23 24 25 25 23 26 26 26 26
4 4 4 2 1 3 4 4 6 7 6 6 6 5 6 9 8 11 11 11 11 12 13 13 13 13 13 13 12 9 7 6 7 7 10 8 11 12 12 14 15 15 15 16 16 17 18 18 18 18 17 16 14 14 15 15 14 14 14 15 14 10 9 10 10 9 8 7 5 7 14 16 20 22 22 23 24 24 24 25 25 26 27 28 29
5 5 5 6 3 3 5 4 5 7 7 5 5 5 5 7 7 7 7 9 9 10 10 9 9 8 13 10 7 7 7 6 7 8 7 8 9 12 12 13 15 15 15 16 16 15 15 15 15 14 14 11 10 6 7 11 14 14 15 14 9 8 9 10 10 9 9 7 6 8 15 19 21 22 23 23 23 25 26 25 26 26 27 29 30
6 6 5 7 4 3 3 6 5 7 7 5 5 6 7 6 7 8 6 8 9 9 8 8 7 9 7 7 7 5 8 6 5 6 7 10 10 12 12 13 14 14 14 15 15 15 15 15 14 13 12 10 7 6 6 7 8 12 11 9 7 8 9 10 9 9 9 9 7 15 17 22 22 24 24 25 25 24 25 26 27 27 28 29 29
7 6 6 6 7 5 4 4 6 6 8 7 6 6 7 6 6 6 6 6 7 7 8 7 7 8 6 6 5 7 8 7 12 14 10 7 8 12 14 13 13 12 12 9 11 12 12 11 14 12 7 5 6 6 6 6 7 7 7 7 7 9 10 9 8 9 9 10 8 16 16 20 22 23 25 25 25 24 25 26 26 26 26 29 29
6 6 6 7 7 6 4 3 3 5 6 7 7 7 7 6 7 6 6 5 6 6 7 7 7 8 6 4 7 8 8 8 8 6 6 6 6 6 6 6 6 6 8 6 6 4 5 6 7 7 6 6 6 7 6 7 7 7 7 7 7 8 8 8 8 8 8 9 12 13 17 20 21 24 25 25 24 24 25 25 26 26 26 27 27
7 8 8 6 8 8 6 5 4 4 5 6 6 6 8 7 7 7 7 6 6 7 7 7 7 8 4 5 7 8 8 8 8 7 7 6 6 5 5 5 5 6 5 5 4 6 7 6 6 7 6 6 7 6 6 7 7 7 7 7 8 8 7 8 8 9 8 9 13 16 14 18 22 24 23 24 24 24 24 25 26 26 26 27 27
6 7 7 7 9 9 9 7 6 5 5 5 6 7 7 6 7 7 8 7 7 7 7 7 7 7 5 5 6 8 7 7 7 7 7 7 6 6 5 5 5 5 3 5 7 7 7 6 6 6 6 6 7 6 7 8 7 7 7 8 8 8 7 7 8 8 8 8 11 18 16 17 19 23 23 23 23 24 24 25 26 26 27 27 27
5 6 7 6 7 9 10 9 8 6 5 5 5 7 7 7 8 8 7 8 7 7 6 7 7 7 8 7 6 8 8 7 6 7 7 6 6 6 6 6 4 4 6 6 7 6 7 6 5 6 7 5 6 6 7 8 7 7 8 7 8 7 7 7 7 8 8 8 10 17 18 17 19 19 20 20 22 22 24 24 25 24 24 25 26
7 7 7 8 8 8 8 12 10 10 8 7 6 6 6 6 7 8 8 7 6 6 6 6 6 7 8 8 6 8 7 6 6 7 7 6 6 6 6 5 5 6 6 6 6 6 6 6 5 6 6 6 5 6 7 7 7 7 7 7 7 7 7 7 7 8 8 8 9 16 22 19 19 20 20 20 20 21 21 24 25 25 25 24 24
7 7 7 6 8 7 6 7 8 9 9 8 5 5 7 6 5 6 7 8 7 6 5 6 6 7 7 8 8 7 8 7 6 7 7 6 6 5 6 5 6 6 6 6 6 6 7 7 6 6 6 6 6 6 7 7 8 7 7 7 7 7 7 7 7 8 7 8 9 12 20 21 18 21 19 20 21 21 21 22 22 25 24 23 23
7 8 7 7 8 8 8 9 7 6 5 7 7 5 6 6 6 5 4 8 7 6 5 5 6 6 7 7 9 6 8 8 7 7 6 6 6 7 6 6 6 5 6 6 5 7 7 6 6 6 6 6 6 6 7 7 7 7 6 7 7 7 7 7 7 7 8 8 8 8 13 20 22 17 20 20 21 20 21 20 21 21 21 22 22
8 9 7 7 8 9 9 10 9 8 6 5 6 7 6 8 7 6 5 3 5 7 6 6 5 5 6 7 7 7 7 8 9 7 8 7 6 7 6 6 6 5 6 6 7 7 6 5 5 7 5 6 7 7 6 7 7 7 7 7 7 8 7 7 7 7 7 7 8 9 9 10 17 22 19 20 20 20 20 21 20 20 20 21 19
5 8 7 8 8 8 9 9 8 8 7 6 5 5 4 6 8 7 6 6 4 4 6 6 6 6 6 7 7 8 8 7 8 9 8 7 7 8 7 7 6 6 6 7 9 7 7 7 6 6 6 6 7 7 6 6 7 7 7 7 7 7 7 7 7 7 6 6 7 7 7 7 9 15 21 19 20 21 20 20 20 20 19 19 19
7 7 8 10 8 6 6 7 7 8 7 5 4 4 4 3 7 7 7 7 6 5 4 5 6 6 6 8 8 9 9 7 7 8 8 7 8 8 9 8 7 7 7 8 8 6 6 7 7 7 7 7 7 7 7 7 7 7 7 6 7 7 7 7 7 7 7 7 7 6 6 7 7 8 9 19 22 21 21 20 18 18 17 17 17
6 7 10 10 9 8 7 6 7 6 9 7 6 5 4 4 3 7 7 7 6 5 4 3 7 7 6 7 7 8 9 9 8 9 8 8 8 8 9 9 8 7 8 7 8 6 6 8 7 8 7 7 7 6 6 7 7 7 6 6 7 6 7 7 7 7 7 7 7 5 6 7 7 7 7 7 12 19 21 22 20 18 17 17 17
11 9 9 8 9 7 7 5 6 6 7 7 5 5 4 4 5 5 7 7 7 6 4 2 4 7 8 7 7 7 9 10 9 9 9 8 8 8 8 9 10 8 7 8 8 8 6 6 5 6 9 8 8 7 6 7 7 7 6 7 7 7 7 7 7 7 7 7 6 5 6 5 5 6 6 7 7 12 22 21 20 19 18 17 18
11 9 9 8 8 8 8 7 7 6 5 5 5 4 4 3 3 4 7 6 7 6 5 2 1 3 6 7 7 8 8 10 10 10 9 9 8 8 9 10 9 9 9 7 7 7 8 6 5 5 4 9 9 9 7 7 7 7 7 7 6 6 6 7 7 6 5 6 5 5 5 6 5 6 4 6 6 6 12 19 19 19 18 18 18
9 9 9 10 10 8 9 8 6 6 5 6 5 5 4 3 5 1 5 6 4 5 5 4 1 1 3 5 7 8 7 9 11 10 9 9 9 10 10 11 10 9 9 8 8 6 5 7 8 5 6 7 8 9 9 7 6 7 7 7 6 6 6 7 6 5 6 6 6 5 5 5 6 5 6 6 6 6 5 9 14 16 18 18 19
8 9 9 8 7 7 7 7 7 7 6 5 5 5 4 4 2 5 5 5 5 4 5 4 3 2 3 4 6 7 7 9 8 10 10 9 9 9 10 11 10 10 9 9 8 7 6 7 8 8 6 5 7 7 8 8 8 7 7 6 6 6 6 6 6 6 6 6 6 5 5 6 5 6 6 6 6 6 6 6 5 4 8 18 18
8 9 9 9 9 7 7 7 7 7 6 5 6 6 5 6 5 4 4 5 5 4 4 4 3 3 3 3 5 7 8 9 9 9 10 10 10 10 10 10 10 10 10 10 9 9 11 11 9 10 9 7 6 7 8 10 9 9 7 7 6 6 5 5 5 4 4 5 5 5 6 5 6 5 5 5 6 6 6 5 5 6 5 11 18
8 9 10 10 11 11 10 11 8 8 8 8 7 7 7 5 4 6 6 5 6 5 4 4 4 4 4 4 5 6 7 9 11 10 10 10 10 11 11 10 10 10 11 11 11 10 8 9 9 7 12 11 7 6 7 8 12 8 7 6 6 5 5 5 5 5 5 5 5 5 4 6 5 6 5 6 6 6 5 5 5 5 6 6 8
10 10 12 12 11 10 11 10 9 9 9 8 8 7 5 6 6 6 4 5 6 7 6 4 5 4 5 5 4 6 7 8 8 10 12 12 11 10 11 12 11 10 8 8 9 9 11 10 9 8 5 11 9 9 9 10 3 8 9 5 5 5 4 4 4 4 5 5 4 5 4 4 5 5 5 6 5 5 5 5 5 6 6 6 6
8 10 9 8 9 9 9 9 9 9 8 8 8 7 5 5 5 4 6 3 2 4 5 5 4 5 5 5 5 5 8 8 9 8 11 12 14 13 12 11 11 10 10 9 10 11 11 13 12 11 9 4 6 7 9 3 8 6 6 8 4 3 1 3 3 4 4 4 4 4 4 4 5 5 5 6 6 5 4 4 5 6 5 5 5
6 6 6 9 8 7 7 8 9 7 7 7 8 6 7 5 4 4 4 5 4 5 5 4 4 5 6 5 5 6 7 8 9 9 8 7 9 13 12 12 11 11 11 12 11 12 11 11 11 10 12 11 8 8 7 4 10 14 6 3 5 4 4 3 3 1 3 4 4 3 4 4 4 5 6 6 5 5 5 4 5 5 5 4 4
7 8 7 7 6 7 7 8 8 8 7 7 8 7 7 6 5 6 6 7 5 5 5 5 6 5 5 5 6 5 6 7 8 10 10 11 10 10 12 12 12 11 11 11 12 13 13 12 13 12 13 13 11 8 9 5 8 3 6 7 3 2 4 5 6 1 3 3 3 3 3 4 4 5 5 4 4 4 5 4 4 4 4 4 4
7 7 8 9 8 8 8 7 7 6 7 8 8 7 8 8 8 8 8 7 7 8 10 10 8 7 7 4 4 5 6 6 7 8 9 9 11 11 11 11 11 10 10 11 11 9 10 11 12 12 10 8 13 11 8 4 8 2 1 1 5 5 8 7 6 3 1 1 4 3 3 4 4 5 4 4 4 4 4 4 4 4 3 3 3
6 5 6 7 6 6 6 7 7 6 6 7 9 8 8 8 10 9 8 10 10 8 5 5 7 6 6 7 5 4 6 8 8 8 8 9 10 10 11 12 12 11 10 9 10 12 11 11 10 10 10 9 9 12 12 9 3 1 1 1 1 0 10 12 4 5 3 1 2 2 1 3 3 4 4 4 5 4 3 4 5 4 4 3 3
6 5 6 6 7 7 7 7 6 7 6 6 8 8 9 9 9 9 8 8 7 6 6 6 6 6 7 6 5 4 5 6 7 8 9 10 10 10 10 11 11 11 11 11 12 10 8 7 9 9 8 9 11 10 9 8 12 6 3 2 3 7 7 2 8 9 6 7 3 0 1 3 4 4 4 4 5 4 4 3 4 4 4 3 3
7 7 7 6 6 6 7 7 7 7 7 6 7 7 7 8 9 8 8 6 5 5 5 6 6 6 7 6 6 5 4 5 6 7 8 10 10 11 11 11 11 11 11 10 10 10 12 12 10 9 10 9 9 8 8 9 6 7 6 2 4 5 2 3 7 5 4 4 2 5 3 2 2 2 5 4 4 4 3 3 3 4 4 3 3
6 6 6 6 7 6 8 8 7 7 7 7 7 7 7 7 8 9 9 7 6 6 7 7 7 7 8 7 6 6 5 5 5 5 6 8 10 10 10 12 12 11 10 10 10 11 10 10 11 11 10 9 7 8 9 6 5 5 6 6 5 3 3 2 1 3 3 4 8 8 7 8 7 3 3 4 4 4 4 3 3 3 4 3 3
6 7 7 7 7 7 8 9 8 8 8 8 8 8 8 9 9 10 10 9 8 8 8 8 7 7 8 7 7 6 6 6 5 5 5 6 8 10 11 11 11 10 10 10 10 11 11 11 10 9 9 9 8 7 7 6 6 7 7 7 7 8 7 6 7 4 4 3 5 4 4 5 5 5 3 4 4 4 4 3 4 4 4 3 3
Wind_Direction
113 106 98 94 105 105 105 106 101 102 99 105 100 99 99 98 100 99 96 92 87 83 81 80 79 77 77 77 75 74 72 71 69 69 68 68 70 70 71 72 71 72 77 82 78 79 81 78 77 71 67 65 64 63 61 60 65 64 64 68 69 69 70 72 78 76 67 62 61 61 61 59 58 57 56 56 58 56 48 51 50 52 49 50 50
129 118 105 97 106 115 122 124 106 98 94 81 89 102 101 104 104 101 99 93 85 83 81 80 77 77 78 79 78 77 75 73 72 72 72 73 75 75 75 76 73 74 79 76 69 78 79 78 73 71 67 65 64 64 62 62 66 63 61 57 55 54 56 61 74 77 72 65 62 59 59 61 59 61 60 58 59 58 54 49 50 51 53 54 52
118 112 110 104 102 116 124 120 121 113 97 108 101 99 102 101 103 104 99 95 91 85 82 82 80 80 79 78 78 79 77 76 75 74 74 76 77 78 78 79 79 81 88 81 81 78 75 76 74 70 67 66 66 65 65 65 63 60 56 52 45 41 40 41 60 68 72 70 65 60 51 57 62 59 61 61 60 58 54 56 53 51 53 54 53
121 114 112 108 106 120 123 128 132 127 127 116 113 106 105 104 105 98 95 96 85 82 83 83 82 81 80 80 78 78 77 77 77 77 77 78 80 82 82 81 84 85 84 89 86 81 77 75 74 72 70 68 67 67 70 68 62 58 54 47 41 35 32 37 51 72 68 60 60 61 54 45 60 63 63 63 63 62 60 59 58 57 55 52 53
116 122 127 121 112 119 124 126 128 128 126 124 121 114 110 107 97 92 91 92 97 98 96 91 86 83 83 82 81 81 79 78 78 77 77 77 79 80 84 85 85 86 82 71 79 79 77 80 78 75 73 71 68 70 71 67 61 55 47 42 35 34 36 51 49 77 79 68 57 59 58 48 51 63 65 65 64 65 66 65 63 61 58 57 57
124 127 137 126 118 120 127 126 124 123 121 119 118 118 116 112 108 110 110 106 106 107 103 98 92 89 86 85 83 82 83 82 81 79 78 78 81 85 87 89 84 84 82 85 84 85 83 78 78 77 74 73 72 71 71 66 59 54 45 34 26 27 34 55 66 64 75 77 67 60 59 56 51 57 63 66 65 63 64 65 65 63 61 60 59
131 141 132 120 123 121 123 122 120 119 119 117 117 116 115 114 115 121 120 114 116 117 112 99 94 90 89 88 87 86 86 86 85 83 82 83 86 88 87 87 84 81 87 86 87 87 84 81 79 76 74 73 71 69 69 64 57 49 40 31 25 21 35 68 69 62 67 74 73 66 61 59 59 64 64 64 65 66 65 65 65 65 64 63 63
110 134 120 112 112 121 121 122 119 115 114 116 119 119 114 117 118 112 112 115 114 116 108 100 97 94 92 91 90 89 90 89 89 89 87 87 86 89 91 84 74 80 82 85 83 81 86 82 78 76 74 71 69 67 65 60 52 43 34 27 23 21 18 84 77 63 60 67 72 71 69 65 66 67 67 68 67 66 66 67 67 66 66 66 65
132 132 117 101 113 115 118 121 122 121 119 119 120 120 119 118 116 120 126 120 119 114 108 102 98 96 92 90 91 91 91 91 91 90 90 87 86 86 88 85 85 82 82 83 84 82 77 80 79 77 74 71 67 65 60 53 44 34 27 22 21 25 59 54 62 66 64 60 64 70 69 71 70 69 69 69 69 70 70 68 66 66 67 65 64
141 128 103 113 119 117 120 128 126 121 120 120 121 121 123 119 117 121 123 119 117 113 108 104 99 94 92 91 91 92 92 92 90 90 91 89 86 85 87 80 79 84 85 83 81 80 79 79 80 78 75 70 66 63 58 51 42 34 26 21 19 37 55 52 50 46 53 62 58 54 60 75 73 76 75 73 73 71 70 70 68 67 66 64 63
139 116 107 111 122 125 132 130 126 125 122 122 127 125 124 128 127 128 123 122 121 118 113 107 102 97 94 93 93 93 92 91 89 89 89 90 89 88 87 85 83 82 83 82 81 79 78 78 78 77 76 72 66 63 56 47 38 32 28 23 21 50 62 58 51 46 46 52 53 47 46 46 56 55 70 73 75 73 73 73 73 72 70 68 68
137 107 113 112 120 126 131 129 130 129 125 126 128 126 127 129 130 127 128 128 122 119 115 108 104 101 100 99 98 96 94 92 90 89 88 88 89 90 91 87 87 85 82 84 81 81 83 83 82 81 79 77 66 61 53 44 39 34 28 23 24 36 69 66 60 53 51 52 54 53 47 45 53 69 70 75 74 68 66 64 68 68 69 67 65
117 106 113 127 119 120 124 130 133 132 130 132 133 132 132 131 129 129 129 129 123 123 117 110 106 105 105 103 102 100 98 96 93 90 89 88 87 84 83 86 88 88 88 89 90 88 87 86 85 83 81 73 66 60 51 44 40 33 26 24 22 34 79 79 76 69 63 58 56 54 50 50 63 70 70 72 77 73 69 69 68 69 68 66 64
112 120 131 126 119 121 125 130 134 135 137 139 137 135 136 131 131 133 133 128 131 126 118 115 110 108 108 107 106 103 101 100 98 96 95 93 91 89 88 89 89 91 94 95 93 92 90 89 87 84 81 72 67 61 53 46 41 34 28 29 31 47 70 71 69 77 76 67 58 54 55 64 67 71 72 71 75 74 72 70 68 69 68 67 64
127 128 132 119 127 125 125 125 125 130 139 140 134 130 139 135 131 125 128 130 125 125 124 119 114 113 111 109 107 106 104 102 101 100 99 98 97 97 95 94 93 91 91 92 92 90 89 89 87 86 79 71 68 63 56 49 39 31 30 28 32 48 58 61 55 57 68 71 64 57 51 60 67 67 72 72 71 72 70 71 68 67 68 65 61
117 124 129 134 132 126 121 125 122 122 130 125 134 134 130 128 126 129 133 135 136 129 131 121 116 114 112 110 108 107 106 103 102 102 102 101 100 98 97 96 96 92 90 91 91 92 91 90 89 86 76 73 69 64 58 49 39 31 28 27 42 50 55 61 58 55 58 64 66 60 54 62 68 71 72 73 71 70 68 69 70 66 65 64 61
126 135 142 143 138 145 132 138 132 128 130 126 130 130 127 126 126 129 130 134 141 134 130 125 118 115 111 106 102 100 100 100 99 100 101 101 101 99 100 100 97 95 93 91 91 92 92 91 89 84 76 73 70 65 57 48 39 32 22 33 53 55 58 61 61 59 59 55 57 61 59 60 68 69 70 70 71 72 70 69 68 67 66 64 62
111 139 143 152 147 153 148 136 138 138 132 124 116 122 134 130 124 121 121 129 133 133 130 122 113 106 101 97 94 93 93 96 97 99 101 99 101 101 100 100 99 97 94 91 90 88 87 87 87 85 76 73 69 65 58 47 38 30 19 34 46 46 48 56 64 60 56 53 51 50 72 71 68 70 70 71 72 73 71 68 68 68 66 65 64
75 97 105 127 151 150 150 143 157 144 138 139 134 123 140 133 130 126 124 125 126 126 127 114 111 107 102 95 90 87 84 84 84 85 93 89 90 94 99 101 101 99 96 93 91 89 88 89 88 81 77 73 68 64 57 48 38 29 35 56 52 48 42 42 53 62 59 58 51 49 56 81 77 72 72 71 69 68 70 70 69 69 70 68 66
107 114 109 78 166 157 158 150 164 152 146 146 139 135 145 137 132 126 121 117 123 128 121 117 116 113 111 107 103 95 89 85 83 80 80 84 88 94 98 101 101 100 98 95 93 91 91 89 86 84 80 75 69 61 55 51 41 32 47 57 54 49 45 44 36 31 45 58 61 62 64 67 77 74 73 72 72 70 70 71 71 71 71 72 70
147 144 139 98 95 148 164 157 160 147 149 144 145 139 143 132 120 116 118 120 122 125 123 121 119 121 120 119 115 111 105 96 88 88 82 84 88 90 95 101 101 100 98 98 96 96 95 93 91 87 83 77 69 60 56 50 41 36 43 54 54 53 50 47 42 36 24 10 46 79 77 75 78 79 77 74 73 73 72 72 72 74 72 71 72
166 164 158 144 149 197 168 183 160 153 152 143 152 142 148 146 128 126 124 124 122 127 129 134 135 136 137 131 129 136 116 103 99 100 96 93 91 93 97 100 102 101 100 98 98 96 93 90 87 82 77 70 63 55 50 49 46 43 42 43 51 54 52 51 49 40 28 18 29 65 83 83 81 81 79 76 75 74 75 75 75 73 74 71 68
181 164 177 149 154 195 203 177 174 153 149 153 154 147 157 154 144 142 131 133 139 143 142 143 148 148 156 142 151 142 118 116 113 96 97 94 96 97 96 99 99 98 98 96 95 93 90 86 82 78 69 58 55 51 51 52 47 43 42 41 52 56 56 54 51 42 36 24 30 47 69 79 83 83 80 80 78 78 77 75 75 74 73 73 71
179 171 169 151 155 173 209 186 171 165 153 166 157 155 166 163 153 145 143 147 155 156 151 155 156 162 167 164 147 114 108 106 105 106 100 96 91 92 97 96 95 91 89 87 87 86 83 75 65 53 46 47 54 57 55 53 52 48 44 44 52 56 56 53 50 46 42 30 23 52 65 79 84 85 85 81 79 77 75 74 73 72 71 70 68
165 156 164 171 166 169 182 183 180 164 162 165 162 166 173 169 157 153 155 157 166 167 162 167 164 176 182 145 115 119 122 121 125 126 116 115 114 113 111 112 115 107 107 110 114 108 80 63 59 52 46 45 47 46 52 56 50 50 49 47 49 54 58 55 52 49 41 32 24 41 74 78 81 83 83 82 80 80 77 75 74 72 72 72 70
146 162 178 175 172 169 175 168 184 179 164 167 174 155 162 175 158 163 164 164 178 176 169 175 170 182 168 123 130 127 128 133 144 144 133 134 139 145 134 136 128 131 141 135 114 82 63 59 71 68 55 56 59 57 59 62 61 54 53 52 50 52 57 55 53 51 40 34 28 12 63 82 78 79 80 81 79 77 78 76 73 71 70 71 69
164 166 168 173 176 176 170 166 188 177 182 181 179 159 174 177 161 169 170 171 183 177 177 176 170 180 154 157 145 142 141 148 154 145 143 150 159 153 140 140 141 150 144 101 81 78 78 71 72 79 71 68 66 64 69 65 61 64 59 58 57 55 55 57 54 51 45 36 27 17 27 61 85 82 78 77 77 75 73 73 72 70 70 70 69
157 172 161 159 170 180 169 169 184 181 187 205 195 161 169 166 165 169 182 180 178 181 179 179 165 168 166 156 174 149 151 159 157 141 148 154 156 142 142 153 151 120 91 83 88 80 85 81 77 78 78 69 77 73 73 69 64 63 67 61 61 58 57 57 57 55 47 42 37 26 23 31 56 73 76 75 74 73 74 74 74 72 70 70 69
174 175 165 159 174 189 174 177 181 178 190 201 200 164 156 158 162 171 188 171 185 182 179 176 164 162 169 157 169 154 157 161 156 145 148 154 142 137 142 125 94 84 89 88 95 102 94 86 84 87 85 76 71 73 73 68 66 62 66 66 64 60 55 60 61 55 51 47 41 35 30 19 54 63 72 74 74 73 71 72 75 75 74 70 69
179 163 166 163 166 170 180 177 179 184 183 191 198 174 158 160 167 175 181 168 189 187 176 176 172 162 164 157 178 166 161 162 153 146 147 147 138 126 101 102 93 98 100 102 106 101 97 101 103 97 88 85 79 76 78 73 67 67 64 68 63 61 60 60 58 57 55 50 44 41 29 27 33 66 67 70 68 71 73 71 72 72 70 73 73
157 173 179 163 163 167 177 185 187 191 182 185 192 189 155 162 170 176 161 173 183 190 186 178 175 166 165 169 170 166 158 159 156 152 143 139 127 116 112 104 100 101 111 107 104 100 102 112 114 105 100 98 91 83 80 77 70 67 66 68 66 65 59 55 59 58 57 53 50 44 34 29 28 49 72 71 71 70 72 69 69 73 74 71 70
172 182 179 163 161 176 175 180 186 181 186 197 181 181 176 163 168 168 177 179 187 188 181 182 185 174 167 170 167 159 160 159 160 153 145 139 134 126 123 118 116 114 113 117 108 108 111 106 95 93 101 102 99 89 81 83 77 71 68 68 66 68 61 58 60 57 63 61 58 52 41 33 32 34 53 72 72 73 69 68 68 68 69 70 70
187 178 171 168 174 175 174 184 184 173 176 189 189 178 179 159 156 161 169 179 205 190 178 184 189 181 172 172 170 156 164 158 160 149 145 145 138 132 124 122 124 123 109 107 103 110 109 107 98 99 96 97 95 90 83 79 81 73 72 68 67 65 62 60 59 58 57 59 63 61 55 42 39 37 37 51 72 72 72 69 66 67 68 70 70
180 179 174 178 175 174 172 180 190 164 172 177 174 171 200 182 151 158 162 169 182 188 197 194 200 195 176 175 172 155 163 160 151 142 145 146 145 139 136 132 134 129 120 115 117 122 120 116 115 111 108 106 101 96 96 89 80 76 72 72 71 71 69 65 62 61 57 57 53 58 63 61 51 48 41 45 56 68 69 69 69 69 68 69 69
178 185 189 177 172 170 174 182 183 171 168 183 185 178 178 202 182 153 155 160 160 177 195 212 197 195 180 173 171 154 158 160 157 146 148 150 148 140 139 141 138 135 127 128 127 126 127 130 136 126 123 111 104 96 98 97 95 87 82 80 79 75 68 72 65 63 62 61 59 52 60 75 71 61 56 56 50 59 61 60 60 64 69 67 64
190 189 183 170 172 164 168 165 165 166 162 166 170 175 175 178 207 163 152 153 149 154 169 223 210 183 172 168 164 149 151 157 153 151 149 155 150 143 142 142 141 135 132 138 140 141 142 137 139 133 131 119 110 101 88 92 88 86 81 80 80 78 77 69 70 70 72 71 67 61 56 63 83 90 85 70 65 61 60 58 58 62 70 67 64
187 180 176 170 170 162 166 164 169 170 155 157 162 166 171 200 206 188 157 156 149 147 149 114 304 174 164 168 162 159 155 161 158 157 152 151 149 143 144 145 146 139 141 145 146 147 148 140 124 113 119 125 118 110 97 92 91 84 82 76 72 78 79 83 77 77 74 82 76 64 57 55 56 60 64 75 79 77 66 60 56 57 60 65 64
184 175 175 175 176 165 170 177 165 174 168 164 168 171 177 192 221 149 130 138 130 127 134 137 220 280 166 160 159 157 155 165 161 159 156 154 151 148 148 150 149 145 143 149 150 147 142 135 126 121 119 122 121 121 117 106 96 91 83 81 78 77 79 77 79 76 79 80 78 72 66 59 58 52 55 56 52 53 51 61 59 53 55 58 61
177 172 168 170 170 158 159 170 165 166 167 159 161 164 172 180 163 116 131 128 120 99 112 128 176 205 216 180 147 146 149 159 164 160 154 149 145 145 150 154 150 150 148 149 147 141 132 126 131 126 111 106 122 120 120 116 104 93 85 76 75 71 72 79 84 90 89 92 91 86 74 63 62 57 57 52 52 53 52 48 46 37 43 54 56
171 171 168 168 175 160 158 164 171 163 156 150 143 146 143 163 179 126 139 144 140 121 108 145 148 194 207 195 162 144 150 158 164 164 154 151 148 149 153 157 154 152 153 151 154 153 151 143 144 138 125 105 98 121 126 118 100 89 83 73 70 77 74 79 81 84 83 81 85 83 83 74 70 67 61 57 58 56 56 49 46 46 41 47 52
173 175 172 175 179 173 161 173 175 164 163 160 160 162 163 167 183 187 177 162 148 142 156 163 177 184 190 203 180 152 153 160 166 160 160 152 151 152 155 160 159 159 162 161 153 147 150 146 142 140 134 129 128 135 132 125 117 89 73 82 78 72 78 72 66 63 66 72 75 85 88 87 87 80 71 67 62 61 59 54 49 48 49 50 46
187 182 184 181 178 172 172 169 171 172 174 171 162 166 175 179 171 184 164 163 154 161 169 175 180 170 181 188 194 164 159 154 165 165 160 160 153 157 161 162 163 163 154 145 145 150 151 152 147 132 140 142 144 156 157 133 89 136 135 120 70 61 78 85 81 71 75 70 78 81 77 90 99 108 94 77 69 68 65 61 58 53 47 49 53
183 188 185 172 175 177 174 167 176 176 176 164 157 169 168 177 173 173 170 128 99 136 152 163 158 167 176 184 189 181 161 158 162 170 165 167 161 156 165 163 164 155 149 154 157 161 165 160 160 148 141 131 132 163 174 191 129 125 110 100 145 104 83 57 79 89 99 102 90 97 98 86 89 93 93 85 78 73 69 65 66 58 49 48 55
178 182 181 180 179 182 173 168 177 176 172 163 157 159 165 176 190 168 130 127 143 106 111 134 146 151 173 179 190 180 164 162 163 161 162 160 154 165 162 162 164 166 160 157 165 168 168 165 156 154 146 144 160 178 201 178 148 141 153 175 166 122 122 224 145 115 107 118 119 118 116 113 100 85 78 81 83 80 77 74 69 64 57 51 55
183 184 179 178 180 185 180 171 173 179 173 159 157 155 135 125 106 89 97 91 87 122 136 171 179 168 148 166 178 165 161 161 166 166 168 168 169 164 163 163 163 167 162 161 169 175 172 167 162 158 168 158 160 169 199 176 176 178 125 126 121 189 202 156 125 119 135 96 91 103 103 113 106 102 97 105 103 100 98 83 75 72 68 53 53
190 185 177 180 178 184 177 167 164 171 166 163 166 152 152 153 153 157 169 176 175 176 189 184 174 175 171 143 132 159 160 163 163 165 168 163 162 165 161 159 163 165 168 168 165 161 170 169 172 166 165 173 158 163 185 216 199 207 126 150 166 170 150 160 124 175 127 103 141 126 125 118 114 116 118 114 106 105 108 104 98 90 79 69 61
196 174 175 180 175 172 172 166 162 167 169 166 166 151 166 172 182 186 188 190 189 196 177 156 164 157 147 161 151 151 165 164 167 163 165 165 160 162 162 163 166 166 162 158 167 176 175 175 167 168 169 157 161 170 179 182 164 295 124 113 94 140 138 142 181 108 138 254 132 133 103 131 122 118 134 139 132 122 120 125 119 107 95 86 71
176 167 169 172 174 172 170 169 159 164 171 167 163 164 173 180 187 195 195 200 199 177 167 153 150 146 153 155 148 144 154 167 164 166 168 164 162 164 163 161 165 167 163 170 174 176 172 171 171 167 159 170 169 174 176 178 177 186 161 118 60 111 149 99 145 159 150 150 211 140 117 160 132 152 145 144 135 132 117 106 114 117 117 100 86
171 172 171 173 171 168 166 164 160 161 172 172 163 172 177 183 193 200 202 201 182 156 147 147 144 148 149 151 154 154 147 149 159 164 168 165 164 167 165 164 166 168 172 171 171 174 177 170 168 167 175 175 180 169 168 184 175 161 144 131 117 141 107 94 146 127 137 120 151 179 179 200 133 151 134 125 119 114 122 129 131 131 118 114 111
171 164 163 165 171 164 168 171 169 167 173 173 162 174 179 179 196 204 206 195 175 152 155 160 157 158 158 162 156 160 163 153 152 160 160 164 165 165 165 167 171 170 172 175 170 174 179 177 177 179 174 172 169 168 178 175 164 146 153 146 144 117 78 67 147 101 94 123 158 191 178 169 176 219 138 120 126 127 136 152 129 115 120 115 111
166 163 167 171 173 171 172 180 176 169 174 171 168 179 185 186 196 203 206 196 184 163 162 168 160 167 167 163 166 168 166 166 156 167 166 160 163 165 167 169 170 169 172 171 178 178 179 179 182 175 173 167 169 164 155 163 156 151 156 159 165 168 169 171 186 177 145 128 86 140 154 181 167 145 205 154 146 163 159 163 148 147 142 128 111